FALCON 9 DEB (46730 NORAD) Tracking and Keplerian Element Data

This shows tracking and keplerian element data for the satellite.

Feedback or suggestion? Click here.




ElementValue
Catalog46730
NameFALCON 9 DEB
Epoch Orbit448
Epoch Day320.29819856
Epoch Year2020
RAAN325.034
Inclination53.034
Eccentricity0.0001319
Argument of Perigee344.0567
Mean Anonmoly16.0441
Mean Motion16.48340464
Decay Rate0.11410533
L11 46730U 20073BN 20320.29819856 .11410533 12615-4 18246-3 0 9998
L22 46730 53.0340 325.0340 0001319 344.0567 16.0441 16.48340464 4489

Live tracking and technical data element details for FALCON 9 DEB (NORAD 46730). FALCON 9 DEB can be tracked NOW for your location showing map with azimuth and elevation plus other details from your city location.

Track the satellite on the map from your city or location and see movement details for azimuth, elevation, latitude, longitude, range, height, and movement on the map or in text.







IsCatalogInMostPopularTable: catalog: 46730, numindb: 12
Update: records affected: 1



GetName: 46730 FALCON 9 DEB

Hit Count: updated at: Sat, 05 Dec 2020 06:05:54 GMT